Location: San Gennaro Vesuviano
(40.8833°N, 14.5333°E)
Time: 10:52:38
(UTC+00:00)

Cosmos 1092 Rocket - Pass Details

Date: 22 April 2021
Orbit: 954 x 995 km, 82.9° (Epoch: 10 May)

Event Time Altitude Azimuth Distance (km) Brightness Sun altitude
Rises 18:54:26 0° 349° (NNW) 3,684 7.6 -12.2°
Reaches altitude 10° 18:56:59 10° 346° (NNW) 2,726 7.0 -12.6°
Maximum altitude 19:03:07 62° 268° (W) 1,080 4.5 -13.6°
Drops below altitude 10° 19:09:09 10° 188° (S) 2,683 6.1 -14.6°
Sets 19:11:39 0° 185° (S) 3,621 6.7 -15.0°
